Regional Weather Roundup
Issued by NWS

Home | Current Version | Previous Version | Text Only | Print | Product List | Glossary Off
Versions: 1 2 3 4 5 6 7 8 9 10 11 12 13 14 15 16 17 18 19 20 21 22 23 24 25 26 27 28 29 30 31 32 33 34 35 36 37 38 39 40 41 42 43 44 45 46 47 48 49 50

000
ASUS43 KMPX 170201
RWRMN
WEATHER ROUNDUP FOR MINNESOTA
NATIONAL WEATHER SERVICE TWIN CITIES/CHANHASSEN MN
800 PM CST TUE JAN 16 2018


NOTE: "FAIR" INDICATES FEW OR NO CLOUDS BELOW 12,000 FEET WITH NO
SIGNIFICANT WEATHER AND/OR OBSTRUCTIONS TO VISIBILITY. N/A MEANS
CURRENT SKY AND/OR WEATHER CONDITIONS ARE NOT AVAILABLE.

MNZ060>063-068>070-170300-
   Twin Cities Metro

CITY           SKY/WX    TMP DP  RH WIND       PRES   REMARKS
TWIN CITIES    FAIR       1  -3  83 SW6       30.58F WCI -10
ST PAUL        FAIR       2  -4  76 W5        30.60F WCI  -8
CRYSTAL        FAIR       2  -6  69 SW7       30.56F WCI -11
BLAINE         CLEAR      3  -2  78 SW5       30.55F WCI  -6
LAKEVILLE      FAIR      -2  -6  84 CALM      30.57F
EDEN PRAIRIE   FAIR       0  -6  76 SW7       30.57F WCI -13
SOUTH ST PAUL  FAIR       2  -4  77 W3        30.58F
LAKE ELMO      FAIR       1  -4  78 CALM      30.58S
$$
MNZ001>005-007-008-013>017-022>024-027-028-170300-
   Northwest Minnesota

CITY           SKY/WX    TMP DP  RH WIND       PRES   REMARKS
BEMIDJI        FAIR       5 -10  48 SW8       30.38F WCI  -8
HALLOCK        FAIR       1  -4  78 S18       30.32F WCI -19
ROSEAU         FAIR       3  -6  66 SW13      30.31F WCI -14
WARROAD        FAIR       1  -8  66 SW15G21   30.30F WCI -18
CROOKSTON      FAIR       3  -2  78 S17       30.42F WCI -17
FOSSTON        FAIR       0  -8  71 S17       30.40F WCI -21
DETROIT LAKES  FAIR       1  -6  71 S7        30.44F WCI -11
MOORHEAD       FAIR       3  -6  66 CALM      30.48F
PARK RAPIDS    FAIR       1  -9  62 SW10      30.41F WCI -15
MAHNOMEN       FAIR       1  -7  71 S15       30.42F WCI -19
$$
MNZ006-009>011-018-025>026-170300-
   North Central Minnesota

CITY           SKY/WX    TMP DP  RH WIND       PRES   REMARKS
BAUDETTE       FAIR       3 -10  54 SW13G21   30.29F WCI -14
FLAG ISLAND    FAIR       3  -8  60 SW15      30.25F WCI -15
INTL FALLS     FAIR       5  -7  57 SW10      30.33F WCI -10
WASKISH        FAIR       7  -8  51 SW12      30.36F WCI  -9
BIG FORK       FAIR       7  -4  61 SW8       30.36F WCI  -6
LONGVILLE      FAIR       3  -6  66 SW7       30.42F WCI  -9
GRAND RAPIDS   FAIR       7  -2  66 W5        30.41F WCI  -2
CRANE LAKE     MOCLDY     7  -2  66 S3        30.36F
ORR            FAIR       5  -6  61 SW6       30.33F WCI  -6
COOK           FAIR       5  -2  72 SW6       30.36F WCI  -6
WALKER         FAIR       5  -9  52 SW8       30.40F WCI  -8
$$
MNZ012-019>021-037-170300-
   Northeast Minnesota

CITY           SKY/WX    TMP DP  RH WIND       PRES   REMARKS
DULUTH         FAIR       4  -2  76 W14       30.39F WCI -14
ELY            FAIR       5   0  78 SW10      30.33F WCI -10
HIBBING        FAIR       3  -3  76 S3        30.38F
EVELETH        FAIR       5  -3  69 W7        30.39F WCI  -7
DULUTH HARBOR  FAIR       9   1  72 SW9       30.49S WCI  -5
TWO HARBORS    FAIR      10   1  67 W8        30.39F WCI  -1
SILVER BAY     FAIR       9   1  72 CALM      30.37F
GRAND MARAIS     N/A     14   4  64 W13G18    30.37F WCI   0
G MARAIS ARPRT CLOUDY     5  -6  61 W6        30.25F WCI  -6
$$
MNZ029>031-032-039>041-046>048-054>057-064-170300-
   West Central Minnesota

CITY           SKY/WX    TMP DP  RH WIND       PRES   REMARKS
FERGUS FALLS   FAIR       0  -6  78 S8        30.53F WCI -15
WHEATON        CLOUDY     3  -2  78 SE8       30.54F WCI -10
MORRIS         CLOUDY     1  -4  78 S9        30.52F WCI -14
ALEXANDRIA     FAIR       0  -5  79 SW8       30.48F WCI -14
ELBOW LAKE     FAIR      -2  -6  84 S8        30.50F FOG     WCI -17
WADENA         FAIR       0  -8  71 SW5       30.45F WCI -10
GLENWOOD       FAIR      -2  -6  84 SW8       30.50F WCI -17
APPLETON       CLOUDY     3  -2  78 S5        30.57R WCI  -6
BENSON         CLOUDY     0  -6  78 S5        30.57R WCI -10
ORTONVILLE     CLEAR      3  -2  78 SE3       30.54R
MADISON        CLOUDY     5   0  78 S5        30.56S WCI  -4
WILLMAR        FAIR      -4  -8  84 CALM      30.58S
$$
MNZ033>034-036-042>043-049>051-058-059-170300-
   Central Minnesota

CITY           SKY/WX    TMP DP  RH WIND       PRES   REMARKS
ST CLOUD       FAIR       0  -4  83 SW6       30.53F WCI -12
SAUK CENTRE      N/A     -2  -7  80 CALM      30.51F
PAYNESVILLE    FAIR      -1  -4  86 SW6       30.53F WCI -13
AITKIN         FAIR       3  -6  66 SW6       30.44F WCI  -8
PINE RIVER     FAIR       1  -6  71 SW3       30.47F
BRAINERD       FAIR       2  -7  66 SW6       30.47F WCI  -9
STAPLES        FAIR       0  -8  71 SW5       30.47S WCI -10
LONG PRAIRIE   FAIR      -2  -8  78 S5        30.49F WCI -12
LITTLE FALLS   FAIR       1  -9  60 SW3       30.50F
LITCHFIELD     FAIR       0  -4  85 CALM      30.55F
BUFFALO        FAIR       0  -5  80 SW5       30.57F WCI -10
MAPLE LAKE     FAIR       1  -3  81 MISG      30.56F
HUTCHINSON     FAIR      -2  -5  84 SW3       30.57F
$$
MNZ037-044-045-052-053-170300-
   East Central Minnesota

CITY           SKY/WX    TMP DP  RH WIND       PRES   REMARKS
PRINCETON      FAIR       1  -4  78 CALM      30.52F
MORA           FAIR       1  -6  71 SW3       30.53F
CAMBRIDGE        N/A      1  -8  66 SW3       30.54F
RUSH CITY      MOCLDY     1  -5  76 SW3       30.53F
MOOSE LAKE     FAIR       1  -4  78 SW3       30.45F
HINCKLEY       FAIR       0  -4  85 SW5       30.50F WCI -10
CLOQUET        FAIR       3  -2  78 SW8       30.42F WCI -10
MCGREGOR       MOCLDY     5   0  78 SW5       30.45F WCI  -4
$$
MNZ071>073-080-081-089-090-097-098-170300-
   Southwest Minnesota

CITY           SKY/WX    TMP DP  RH WIND       PRES   REMARKS
MONTEVIDEO     CLOUDY     1  -4  78 SW5       30.57R WCI  -8
GRANITE FALLS  CLEAR     -1  -5  82 S9        30.58F WCI -16
CANBY          CLOUDY     6   0  74 SW5       30.53F WCI  -3
MARSHALL       CLOUDY     4  -1  80 SW13      30.54F WCI -13
REDWOOD FALLS  CLOUDY    -1  -5  82 SW6       30.58F WCI -13
OLIVIA         CLEAR      0  -6  78 SW5       30.58S WCI -10
PIPESTONE      CLOUDY    -2  -6  84 W6        30.52F WCI -14
WINDOM         CLOUDY     1 -11  55 SW8       30.55F WCI -12
WORTHINGTON    CLOUDY     0  -4  83 SW9       30.56F WCI -15
JACKSON        CLOUDY     1  -4  78 SW3       30.56F
SLAYTON        CLOUDY     2  -2  82 W5        30.55F WCI  -8
$$
MNZ065>067-074>077-082>085-091>093-170300-
   South Central Minnesota

CITY           SKY/WX    TMP DP  RH WIND       PRES   REMARKS
MANKATO        FAIR      -3  -6  87 SW5       30.59F WCI -13
NEW ULM        CLEAR     -2  -8  78 CALM      30.58F
ST JAMES       CLEAR     -2  -6  84 SW3       30.59F
FAIRMONT       CLOUDY    -3  -7  82 SW7       30.59F WCI -16
FARIBAULT      FAIR      -6  -8  92 S3        30.58F
OWATONNA       FAIR      -6  -9  84 SW6       30.57F WCI -18
WASECA         FAIR      -4  -8  84 SW6       30.60S WCI -16
ALBERT LEA     FAIR      -2  -8  78 W3        30.57F
$$
MNZ078>079-086>088-094>096-170300-
   Southeast Minnesota

CITY           SKY/WX    TMP DP  RH WIND       PRES   REMARKS
ROCHESTER      FAIR      -3  -6  87 W9        30.55F WCI -19
RED WING       FAIR      -2  -8  78 CALM      30.59F
STANTON        FAIR      -2  -6  81 SW7       30.57F WCI -15
DODGE CENTER   FAIR      -6  -9  84 SW8       30.54F WCI -21
WINONA         FAIR       5   0  78 NW6       30.60F WCI  -6
AUSTIN         FAIR      -2  -8  78 SW3       30.57F
PRESTON        FAIR      -3  -7  82 W7        30.56F WCI -17
$$
ABBREVIATIONS USED IN REMARKS
   TC - TEMPERATURES IN CELSIUS
  WCI - WIND CHILL INDEX
   HX - HEAT INDEX
  VSB - VISIBILITY
$$




USA.gov is the U.S. government's official web portal to all federal, state and local government web resources and services.